CPA409 VHHH-RCKH

Flight info

Callsign CPA409
Flight time 1h 0m
Altitude 33000
Route OCEAN V3 ENVAR DCT COMBO G581 WP521 T7 PARAS DCT KIZIN
Aircraft B77W/H-SDE1E2E3FGHIJ2J3J4J5M1RWXY/LB1D1

Departure

Time 2026-04-15 10:46
Airport Hong Kong International Airport (VHHH)

Arrival

Time 2026-04-15 11:46
Airport Kaohsiung International Airport (RCKH)
Time Latitude Longitude Altitude Speed Heading
2026-04-15 10:46 22.26695 113.83366 3130 ft 233 kts 233°
2026-04-15 10:46 22.25652 113.82020 3811 ft 233 kts 219°
2026-04-15 10:46 22.24164 113.81313 4459 ft 239 kts 186°
2026-04-15 10:47 22.22510 113.81292 5065 ft 241 kts 181°
2026-04-15 10:47 22.20805 113.81306 5582 ft 247 kts 179°
2026-04-15 10:47 22.19138 113.81734 6250 ft 252 kts 151°
2026-04-15 10:47 22.17864 113.83057 6845 ft 258 kts 130°
2026-04-15 10:48 22.16753 113.84600 7299 ft 264 kts 130°
2026-04-15 10:48 22.15718 113.86269 7892 ft 272 kts 118°
2026-04-15 10:48 22.14990 113.88154 8619 ft 274 kts 112°
2026-04-15 10:48 22.14327 113.90074 9019 ft 277 kts 112°
2026-04-15 10:49 22.13666 113.92044 9017 ft 283 kts 107°
2026-04-15 10:49 22.13262 113.94124 9023 ft 284 kts 98°
2026-04-15 10:49 22.13092 113.96295 9329 ft 296 kts 94°
2026-04-15 10:49 22.13000 113.98555 9858 ft 305 kts 93°
2026-04-15 10:50 22.12878 114.00884 10320 ft 320 kts 95°
2026-04-15 10:50 22.12694 114.03363 10489 ft 345 kts 96°
2026-04-15 10:50 22.12461 114.06009 10672 ft 369 kts 97°
2026-04-15 10:50 22.12116 114.08860 10971 ft 388 kts 99°
2026-04-15 10:51 22.11661 114.11742 11545 ft 398 kts 102°
2026-04-15 10:51 22.11118 114.14693 11909 ft 405 kts 103°
2026-04-15 10:51 22.10526 114.17679 11918 ft 407 kts 103°
2026-04-15 10:51 22.09956 114.20684 12401 ft 413 kts 102°
2026-04-15 10:52 22.09411 114.23767 13323 ft 414 kts 102°
2026-04-15 10:52 22.08903 114.26792 14148 ft 418 kts 101°
2026-04-15 10:52 22.08385 114.29918 14863 ft 423 kts 101°
2026-04-15 10:52 22.07859 114.33055 15543 ft 429 kts 102°
2026-04-15 10:53 22.07247 114.36197 16100 ft 427 kts 107°
2026-04-15 10:53 22.06068 114.39101 16323 ft 432 kts 128°
2026-04-15 10:53 22.04081 114.41529 16821 ft 427 kts 136°
2026-04-15 10:53 22.02013 114.43847 17073 ft 432 kts 134°
2026-04-15 10:54 22.00303 114.46534 17326 ft 443 kts 116°
2026-04-15 10:54 21.99238 114.49478 17965 ft 442 kts 110°
2026-04-15 10:54 21.98389 114.52700 18421 ft 452 kts 104°
2026-04-15 10:54 21.97817 114.55993 18910 ft 453 kts 99°
2026-04-15 10:55 21.97403 114.59414 19442 ft 459 kts 97°
2026-04-15 10:55 21.97072 114.62860 20084 ft 462 kts 96°
2026-04-15 10:55 21.96778 114.66258 20711 ft 464 kts 96°
2026-04-15 10:55 21.96477 114.69731 21306 ft 468 kts 96°
2026-04-15 10:56 21.96157 114.73234 21874 ft 472 kts 96°
2026-04-15 10:56 21.95814 114.76776 22427 ft 476 kts 96°
2026-04-15 10:56 21.95453 114.80329 22983 ft 480 kts 97°
2026-04-15 10:56 21.95073 114.83933 23521 ft 484 kts 97°
2026-04-15 10:57 21.94686 114.87553 23972 ft 488 kts 97°
2026-04-15 10:57 21.93898 114.94869 24859 ft 494 kts 97°
2026-04-15 10:57 21.93504 114.98550 25280 ft 498 kts 97°
2026-04-15 10:58 21.93106 115.02275 25720 ft 501 kts 97°
2026-04-15 10:58 21.92709 115.05999 26139 ft 505 kts 97°
2026-04-15 10:58 21.92307 115.09774 26551 ft 508 kts 97°
2026-04-15 10:58 21.91901 115.13574 26955 ft 511 kts 97°
2026-04-15 10:59 21.91497 115.17353 27351 ft 515 kts 97°
2026-04-15 10:59 21.91080 115.21243 27756 ft 517 kts 97°
2026-04-15 10:59 21.90665 115.25097 28143 ft 520 kts 97°
2026-04-15 10:59 21.90245 115.28986 28519 ft 523 kts 97°
2026-04-15 11:00 21.89825 115.32868 28852 ft 526 kts 97°
2026-04-15 11:00 21.89398 115.36808 29190 ft 529 kts 97°
2026-04-15 11:00 21.88969 115.40753 29498 ft 532 kts 97°
2026-04-15 11:00 21.88537 115.44716 29801 ft 534 kts 97°
2026-04-15 11:01 21.88108 115.48642 30088 ft 536 kts 98°
2026-04-15 11:01 21.87673 115.52626 30406 ft 536 kts 98°
2026-04-15 11:01 21.87235 115.56618 30781 ft 535 kts 98°
2026-04-15 11:01 21.86799 115.60593 31168 ft 534 kts 98°
2026-04-15 11:02 21.86363 115.64557 31543 ft 533 kts 98°
2026-04-15 11:02 21.85926 115.68518 31896 ft 533 kts 98°
2026-04-15 11:02 21.85489 115.72474 32237 ft 532 kts 98°
2026-04-15 11:02 21.85051 115.76426 32583 ft 532 kts 98°
2026-04-15 11:03 21.84613 115.80364 32864 ft 533 kts 98°
2026-04-15 11:03 21.84169 115.84348 32895 ft 536 kts 98°
2026-04-15 11:03 21.83281 115.92291 32907 ft 531 kts 98°
2026-04-15 11:04 21.82403 116.00123 32907 ft 528 kts 98°
2026-04-15 11:04 21.81518 116.07975 32922 ft 528 kts 98°
2026-04-15 11:05 21.80630 116.15812 32921 ft 528 kts 98°
2026-04-15 11:05 21.79736 116.23678 32916 ft 529 kts 98°
2026-04-15 11:06 21.78838 116.31546 32915 ft 530 kts 98°
2026-04-15 11:06 21.77936 116.39417 32920 ft 530 kts 98°
2026-04-15 11:07 21.77036 116.47232 32921 ft 530 kts 98°
2026-04-15 11:07 21.76126 116.55109 32925 ft 530 kts 98°
2026-04-15 11:08 21.75213 116.62975 32923 ft 530 kts 98°
2026-04-15 11:08 21.74298 116.70831 32922 ft 529 kts 98°
2026-04-15 11:09 21.73848 116.78628 32903 ft 517 kts 85°
2026-04-15 11:09 21.74555 116.82414 32932 ft 522 kts 70°
2026-04-15 11:09 21.76064 116.86000 32933 ft 524 kts 60°
2026-04-15 11:10 21.79488 116.92842 32909 ft 516 kts 65°
2026-04-15 11:10 21.81795 117.00133 32931 ft 518 kts 73°
2026-04-15 11:11 21.83518 117.06353 32935 ft 528 kts 72°
2026-04-15 11:11 21.85880 117.13907 32928 ft 533 kts 69°
2026-04-15 11:12 21.89037 117.22484 32914 ft 521 kts 66°
2026-04-15 11:12 21.91440 117.28490 32922 ft 526 kts 66°
2026-04-15 11:13 21.94222 117.35844 32929 ft 533 kts 68°
2026-04-15 11:13 21.96836 117.43307 32924 ft 532 kts 69°
2026-04-15 11:14 21.99474 117.50747 32922 ft 525 kts 67°
2026-04-15 11:14 22.02379 117.57842 32914 ft 515 kts 64°
2026-04-15 11:15 22.05453 117.64773 32918 ft 509 kts 63°
2026-04-15 11:15 22.08469 117.71636 32923 ft 505 kts 64°
2026-04-15 11:16 22.11409 117.78507 32921 ft 502 kts 64°
2026-04-15 11:16 22.14281 117.85290 32922 ft 500 kts 64°
2026-04-15 11:17 22.17185 117.92139 32926 ft 498 kts 64°
2026-04-15 11:17 22.20042 117.98865 32929 ft 496 kts 64°
2026-04-15 11:18 22.22919 118.05646 32931 ft 495 kts 64°
2026-04-15 11:18 22.25585 118.12573 32938 ft 505 kts 71°
2026-04-15 11:19 22.26711 118.20002 32945 ft 505 kts 94°
2026-04-15 11:19 22.25813 118.27616 32946 ft 519 kts 101°
2026-04-15 11:20 22.24415 118.35334 32942 ft 530 kts 102°
2026-04-15 11:20 22.23053 118.43104 32927 ft 521 kts 101°
2026-04-15 11:21 22.21947 118.50771 32923 ft 514 kts 99°
2026-04-15 11:21 22.20909 118.58348 32929 ft 508 kts 98°
2026-04-15 11:22 22.20046 118.65903 32929 ft 505 kts 98°
2026-04-15 11:22 22.19210 118.73393 32932 ft 502 kts 98°
2026-04-15 11:23 22.18333 118.80839 32933 ft 499 kts 98°
2026-04-15 11:23 22.17436 118.88259 32930 ft 497 kts 98°
2026-04-15 11:24 22.16548 118.95637 32934 ft 496 kts 98°
2026-04-15 11:24 22.16103 118.99300 32686 ft 502 kts 99°
2026-04-15 11:24 22.15568 119.03154 31521 ft 533 kts 100°
2026-04-15 11:25 22.15014 119.07118 30585 ft 535 kts 98°
2026-04-15 11:25 22.14692 119.11057 29943 ft 521 kts 91°
2026-04-15 11:25 22.14735 119.14896 29216 ft 506 kts 87°
2026-04-15 11:25 22.14962 119.18642 28571 ft 491 kts 85°
2026-04-15 11:26 22.15220 119.22297 27993 ft 488 kts 85°
2026-04-15 11:26 22.15435 119.25946 27421 ft 486 kts 86°
2026-04-15 11:26 22.15584 119.29589 26840 ft 488 kts 88°
2026-04-15 11:26 22.15681 119.33271 26257 ft 493 kts 88°
2026-04-15 11:27 22.15749 119.36974 25659 ft 495 kts 89°
2026-04-15 11:27 22.15813 119.40681 25047 ft 493 kts 88°
2026-04-15 11:27 22.15892 119.44388 24444 ft 490 kts 88°
2026-04-15 11:27 22.15984 119.48040 23852 ft 487 kts 88°
2026-04-15 11:28 22.16124 119.51644 23206 ft 473 kts 85°
2026-04-15 11:28 22.16427 119.55112 22570 ft 458 kts 81°
2026-04-15 11:28 22.17103 119.58421 21993 ft 446 kts 70°
2026-04-15 11:28 22.18226 119.61511 21466 ft 435 kts 65°
2026-04-15 11:29 22.19401 119.64466 20937 ft 423 kts 66°
2026-04-15 11:29 22.20207 119.67473 20425 ft 420 kts 82°
2026-04-15 11:29 22.20416 119.70561 19875 ft 413 kts 86°
2026-04-15 11:29 22.20606 119.73617 19341 ft 403 kts 81°
2026-04-15 11:30 22.21467 119.76462 18758 ft 400 kts 59°
2026-04-15 11:30 22.23038 119.78901 18378 ft 393 kts 47°
2026-04-15 11:30 22.24904 119.81033 18038 ft 387 kts 41°
2026-04-15 11:30 22.26891 119.82972 17632 ft 383 kts 37°
2026-04-15 11:31 22.28953 119.84774 17197 ft 380 kts 36°
2026-04-15 11:31 22.31047 119.86515 16769 ft 378 kts 34°
2026-04-15 11:31 22.33131 119.88217 16347 ft 376 kts 34°
2026-04-15 11:31 22.35219 119.89921 15948 ft 373 kts 35°
2026-04-15 11:32 22.37278 119.91610 15558 ft 371 kts 35°
2026-04-15 11:32 22.39319 119.93297 15171 ft 369 kts 35°
2026-04-15 11:32 22.41353 119.94986 14788 ft 366 kts 36°
2026-04-15 11:32 22.43359 119.96657 14410 ft 364 kts 36°
2026-04-15 11:33 22.45364 119.98330 14033 ft 362 kts 36°
2026-04-15 11:33 22.47326 119.99968 13646 ft 360 kts 36°
2026-04-15 11:33 22.49309 120.01624 13232 ft 358 kts 36°
2026-04-15 11:33 22.51266 120.03257 12852 ft 355 kts 36°
2026-04-15 11:34 22.53214 120.04883 12481 ft 352 kts 36°
2026-04-15 11:34 22.55146 120.06495 12110 ft 349 kts 36°
2026-04-15 11:34 22.57014 120.08140 11666 ft 342 kts 42°
2026-04-15 11:34 22.58390 120.10221 10967 ft 347 kts 69°
2026-04-15 11:35 22.58683 120.12786 10585 ft 344 kts 98°
2026-04-15 11:35 22.58229 120.15251 10448 ft 328 kts 101°
2026-04-15 11:35 22.57921 120.17659 10341 ft 319 kts 93°
2026-04-15 11:35 22.57879 120.20028 10140 ft 310 kts 89°
2026-04-15 11:36 22.57906 120.22336 10067 ft 305 kts 89°
2026-04-15 11:36 22.57923 120.24628 9996 ft 306 kts 89°
2026-04-15 11:36 22.57911 120.26943 9675 ft 310 kts 90°
2026-04-15 11:36 22.57873 120.29260 9307 ft 311 kts 90°
2026-04-15 11:37 22.57816 120.31619 8936 ft 310 kts 91°
2026-04-15 11:37 22.57748 120.33959 8569 ft 309 kts 91°
2026-04-15 11:37 22.57675 120.36282 8198 ft 309 kts 91°
2026-04-15 11:37 22.57601 120.38603 7856 ft 308 kts 91°
2026-04-15 11:38 22.57527 120.40920 7504 ft 308 kts 91°
2026-04-15 11:38 22.57453 120.43201 7157 ft 308 kts 91°
2026-04-15 11:38 22.57379 120.45511 6812 ft 307 kts 90°
2026-04-15 11:38 22.57273 120.47810 6454 ft 303 kts 95°
2026-04-15 11:39 22.57012 120.50045 6084 ft 296 kts 94°
2026-04-15 11:39 22.56844 120.52265 5718 ft 294 kts 92°
2026-04-15 11:39 22.56734 120.54444 5350 ft 287 kts 92°
2026-04-15 11:39 22.56428 120.56554 4966 ft 281 kts 107°
2026-04-15 11:40 22.55411 120.58264 4544 ft 269 kts 142°
2026-04-15 11:40 22.53731 120.58953 4138 ft 254 kts 182°
2026-04-15 11:40 22.52114 120.58444 3758 ft 238 kts 214°
2026-04-15 11:40 22.50766 120.57421 3435 ft 238 kts 219°
2026-04-15 11:41 22.49503 120.56230 3094 ft 240 kts 230°
2026-04-15 11:41 22.48647 120.54743 2730 ft 229 kts 259°
2026-04-15 11:41 22.48684 120.53083 2704 ft 222 kts 292°
2026-04-15 11:41 22.49555 120.51768 2682 ft 220 kts 326°
2026-04-15 11:42 22.50961 120.51176 2677 ft 217 kts 352°
2026-04-15 11:42 22.52441 120.51000 2683 ft 212 kts 353°
2026-04-15 11:42 22.53893 120.50814 2723 ft 209 kts 352°
2026-04-15 11:42 22.55354 120.50614 2470 ft 215 kts 352°
2026-04-15 11:43 22.56835 120.50410 2087 ft 213 kts 352°
2026-04-15 11:43 22.58188 120.49984 1769 ft 193 kts 324°
2026-04-15 11:43 22.58892 120.48867 1477 ft 177 kts 281°
2026-04-15 11:43 22.58630 120.47606 1512 ft 184 kts 240°
2026-04-15 11:44 22.57913 120.46434 1457 ft 183 kts 250°
2026-04-15 11:44 22.57666 120.45149 1504 ft 170 kts 267°
2026-04-15 11:44 22.57577 120.43879 1371 ft 169 kts 269°
2026-04-15 11:44 22.57505 120.42644 1156 ft 160 kts 270°
2026-04-15 11:45 22.57504 120.41485 987 ft 150 kts 274°
2026-04-15 11:45 22.57534 120.40399 792 ft 143 kts 274°
2026-04-15 11:45 22.57568 120.39344 598 ft 139 kts 274°
2026-04-15 11:45 22.57613 120.38314 463 ft 132 kts 274°
2026-04-15 11:46 22.57640 120.37352 249 ft 126 kts 272°
2026-04-15 11:46 22.57668 120.36425 91 ft 116 kts 272°
2026-04-15 11:46 22.57689 120.35628 42 ft 90 kts 271°
2026-04-15 11:46 22.57703 120.35154 40 ft 36 kts 272°
2026-04-15 11:47 22.57707 120.35021 39 ft 14 kts 271°
2026-04-15 11:47 22.57670 120.34931 40 ft 14 kts 209°
2026-04-15 11:47 22.57622 120.34918 40 ft 0 kts 190°
2026-04-15 11:49 22.57621 120.34918 40 ft 0 kts 190°
2026-04-15 11:49 22.57613 120.34916 40 ft 2 kts 190°
2026-04-15 11:49 22.57593 120.34912 40 ft 4 kts 191°
2026-04-15 11:49 22.57567 120.34898 40 ft 5 kts 222°
2026-04-15 11:50 22.57551 120.34861 40 ft 6 kts 252°
2026-04-15 11:50 22.57549 120.34812 40 ft 7 kts 272°
2026-04-15 11:50 22.57551 120.34752 40 ft 9 kts 271°
2026-04-15 11:50 22.57549 120.34682 39 ft 10 kts 259°
2026-04-15 11:51 22.57504 120.34629 39 ft 10 kts 205°
2026-04-15 11:51 22.57431 120.34619 39 ft 9 kts 181°
2026-04-15 11:51 22.57397 120.34569 39 ft 10 kts 265°
2026-04-15 11:51 22.57399 120.34492 39 ft 11 kts 270°
2026-04-15 11:52 22.57376 120.34413 38 ft 12 kts 231°
2026-04-15 11:52 22.57331 120.34347 38 ft 9 kts 259°
2026-04-15 11:52 22.57330 120.34278 38 ft 9 kts 271°
2026-04-15 11:52 22.57330 120.34250 38 ft 0 kts 267°
2026-04-15 11:53 22.57330 120.34243 38 ft 1 kts 271°
2026-04-15 11:53 22.57330 120.34241 38 ft 0 kts 271°